This demonstration page uses our WeatherBlox Daily Observations layout. Learn more.

Left ArrowRight Arrow

Hourly Observations for December 3, 2021

Temp ( °F °C ) Dew Point ( °F °C ) Humidity (%) Winds ( mph kmh ) Pressure ( in mb ) Visibility ( mi km ) Precip ( " mm )
12:53 am 00:53 Clear 23 -5 19 -7.2 85 85 ENE 7 11 30.33 1027 10 16 0.00 0.00
1:53 am 01:53 Clear 23 -5 19 -7.2 85 85 ENE 9 15 30.23 1024 10 16 0.00 0.00
3:53 am 03:53 Clear 21 -6.1 16 -8.9 81 81 ENE 9 15 30.25 1025 10 16 0.00 0.00
4:53 am 04:53 Clear 21 -6.1 16 -8.9 81 81 ENE 10 17 30.27 1025 10 16 0.00 0.00
5:53 am 05:53 Clear 20 -6.7 15 -9.4 81 81 ENE 9 15 30.28 1025 10 16 0.00 0.00
6:53 am 06:53 Clear 19 -7.2 14 -10 81 81 ENE 9 15 30.29 1026 10 16 0.00 0.00
7:53 am 07:53 Sunny 18 -7.8 13 -10.6 81 81 ENE 9 15 30.32 1027 10 16 0.00 0.00
8:53 am 08:53 Sunny 20 -6.7 14 -10 78 78 ENE 9 15 30.33 1027 10 16 0.00 0.00
9:53 am 09:53 Sunny 23 -5 15 -9.4 72 72 ENE 10 17 30.35 1028 10 16 0.00 0.00
10:53 am 10:53 Sunny 25 -3.9 15 -9.4 66 66 E 10 17 30.36 1028 10 16 0.00 0.00
11:53 am 11:53 Sunny 29 -1.7 16 -8.9 58 58 E 13 20 30.34 1027 10 16 0.00 0.00
12:53 pm 12:53 Cloudy 31 -0.6 13 -10.6 47 47 ENE 13 20 30.33 1027 10 16 0.00 0.00
1:53 pm 13:53 Cloudy 33 0.6 13 -10.6 43 43 ENE 13 20 30.32 1027 10 16 0.00 0.00
2:53 pm 14:53 Mostly Cloudy 34 1.1 8 -13.3 34 34 E 14 22 30.30 1026 10 16 0.00 0.00
3:53 pm 15:53 Cloudy 33 0.6 8 -13.3 35 35 E 9 15 30.33 1027 10 16 0.00 0.00
4:53 pm 16:53 Partly Cloudy 32 0 9 -12.8 38 38 ENE 8 13 30.34 1027 10 16 0.00 0.00
5:53 pm 17:53 Cloudy 31 -0.6 9 -12.8 40 40 E 8 13 30.34 1027 10 16 0.00 0.00
6:53 pm 18:53 Cloudy 29 -1.7 12 -11.1 49 49 Calm 30.36 1028 10 16 0.00 0.00
7:53 pm 19:53 Partly Cloudy 27 -2.8 13 -10.6 55 55 SSW 5 7 30.36 1028 10 16 0.00 0.00
8:53 pm 20:53 Cloudy 27 -2.8 18 -7.8 69 69 W 3 6 30.36 1028 10 16 0.00 0.00
9:53 pm 21:53 Mostly Cloudy 25 -3.9 17 -8.3 72 72 SSW 8 13 30.35 1028 10 16 0.00 0.00
10:53 pm 22:53 Cloudy 25 -3.9 17 -8.3 72 72 SW 5 7 30.33 1027 10 16 0.00 0.00
11:53 pm 23:53 Cloudy 26 -3.3 18 -7.8 71 71 Calm 30.32 1027 10 16 0.00 0.00

Powered by AerisWeather